カタログに戻る

CZ-2D DEB

運用中SSO
NORAD 47975·DEBRIS·🇨🇳 China

打ち上げ Sep 25, 2019 から Jiuquan Satellite Launch Center

Loading…

次のパス (今後24時間)

TLE

最新Source: Space-Track

元期: Sep 13, 2026, 09:17 UTC

1 47975U 19063E   26256.38694696  .00000269  00000-0  10551-3 0  9995
2 47975  98.4530 313.6655 0006362 239.5429 120.5130 14.36951930299051

AllMySatでCZ-2D DEBをリアルタイム追跡

Download on the App Store